This demonstration page uses our WeatherBlox Daily Observations layout. Learn more.

Left ArrowRight Arrow

32.84923, -109.75925

Hourly Observations for September 29, 2022

Temp ( °F °C ) Dew Point ( °F °C ) Humidity (%) Winds ( mph kmh ) Pressure ( in mb ) Visibility ( mi km ) Precip ( " mm )
12:51 am 00:51 Clear 68 20 35 1.7 30 30 SE 7 11 30.02 1017 10 16 0.00 0.00
1:51 am 01:51 Clear 68 20 36 2.2 31 31 ESE 8 13 30.02 1017 10 16 0.00 0.00
2:51 am 02:51 Clear 71 21.7 36 2.2 28 28 SE 9 15 30.01 1016 10 16 0.00 0.00
3:51 am 03:51 Clear 67 19.4 37 2.8 33 33 SE 6 9 30.02 1017 10 16 0.00 0.00
4:51 am 04:51 Clear 68 20 36 2.2 31 31 SE 8 13 30.02 1017 10 16 0.00 0.00
5:51 am 05:51 Clear 68 20 38 3.3 33 33 ESE 10 17 30.04 1017 10 16 0.00 0.00
6:51 am 06:51 Sunny 67 19.4 39 3.9 36 36 SE 7 11 30.06 1018 10 16 0.00 0.00
7:51 am 07:51 Sunny 72 22.2 40 4.4 31 31 E 12 19 30.06 1018 10 16 0.00 0.00
8:51 am 08:51 Sunny 77 25 39 3.9 25 25 ESE 14 22 30.06 1018 10 16 0.00 0.00
9:51 am 09:51 Sunny 77 25 38 3.3 24 24 S 5 7 30.06 1018 10 16 0.00 0.00
10:51 am 10:51 Sunny 81 27.2 37 2.8 21 21 SSE 12 19 30.03 1017 10 16 0.00 0.00
11:51 am 11:51 Sunny 81 27.2 38 3.3 21 21 S 12 19 30.01 1016 10 16 0.00 0.00
12:51 pm 12:51 Sunny 83 28.3 37 2.8 19 19 SSW 9 15 29.98 1015 10 16 0.00 0.00
1:51 pm 13:51 Sunny 84 28.9 38 3.3 19 19 SW 10 17 29.94 1014 10 16 0.00 0.00
2:51 pm 14:51 Sunny 85 29.4 39 3.9 20 20 SSW 5 7 29.90 1013 10 16 0.00 0.00
3:51 pm 15:51 undefined 85 29.4 39 3.9 20 20 SE 10 17 29.89 1012 N/A 0.00 0.00
4:51 pm 16:51 Sunny 84 28.9 38 3.3 19 19 SSE 13 20 29.88 1012 10 16 0.00 0.00
5:51 pm 17:51 Sunny 82 27.8 39 3.9 22 22 SE 8 13 29.89 1012 10 16 0.00 0.00
6:51 pm 18:51 Clear 76 24.4 39 3.9 26 26 E 6 9 29.90 1012 10 16 0.00 0.00
7:51 pm 19:51 Clear 76 24.4 42 5.6 30 30 SSE 9 15 29.90 1013 10 16 0.00 0.00
8:51 pm 20:51 Clear 73 22.8 45 7.2 37 37 ESE 6 9 29.91 1013 10 16 0.00 0.00
9:51 pm 21:51 Clear 70 21.1 45 7.2 41 41 SE 7 11 29.92 1013 10 16 0.00 0.00
10:51 pm 22:51 Clear 68 20 45 7.2 43 43 ESE 6 9 29.92 1013 10 16 0.00 0.00
11:51 pm 23:51 Partly Cloudy 67 19.4 44 6.7 44 44 SE 5 7 29.91 1013 10 16 0.00 0.00

Powered by AerisWeather